This demonstration page uses our WeatherBlox Daily Observations layout. Learn more.

Left ArrowRight Arrow

Hourly Observations for October 25, 2019

Temp ( °F °C ) Dew Point ( °F °C ) Humidity (%) Winds ( mph kmh ) Pressure ( in mb ) Visibility ( mi km ) Precip ( " mm )
12:53 am 00:53 Cloudy 38 3.3 27 -2.8 65 65 NNW 7 11 30.38 1029 10 16 0.00 0.00
1:53 am 01:53 Cloudy 39 3.9 27 -2.8 62 62 W 8 13 30.37 1029 10 16 0.00 0.00
2:53 am 02:53 Cloudy 39 3.9 28 -2.2 65 65 NW 5 7 30.37 1029 10 16 0.00 0.00
3:29 am 03:29 Cloudy 39 3.9 28 -2.2 65 65 WNW 8 13 30.45 1031 10 16 0.00 0.00
3:53 am 03:53 Cloudy 39 3.9 28 -2.2 65 65 WNW 7 11 30.37 1029 10 16 0.00 0.00
4:53 am 04:53 Mostly Clear 36 2.2 27 -2.8 70 70 W 8 13 30.38 1029 10 16 0.00 0.00
5:53 am 05:53 Clear 33 0.6 26 -3.3 75 75 W 9 15 30.40 1030 10 16 0.00 0.00
6:53 am 06:53 Clear 34 1.1 26 -3.3 73 73 WNW 7 11 30.40 1030 10 16 0.00 0.00
7:53 am 07:53 Clear 31 -0.6 25 -3.9 79 79 WNW 8 13 30.41 1030 10 16 0.00 0.00
8:53 am 08:53 Sunny 34 1.1 26 -3.3 73 73 NW 6 9 30.42 1030 10 16 0.00 0.00
9:53 am 09:53 Sunny 42 5.6 25 -3.9 51 51 N 13 20 30.41 1030 10 16 0.00 0.00
10:53 am 10:53 Sunny 48 8.9 24 -4.4 39 39 N 15 24 30.40 1029 10 16 0.00 0.00
11:53 am 11:53 Sunny 51 10.6 21 -6.1 31 31 N 14 22 30.38 1029 10 16 0.00 0.00
12:53 pm 12:53 Sunny 54 12.2 19 -7.2 25 25 N 16 26 30.35 1028 10 16 0.00 0.00
1:53 pm 13:53 Sunny 57 13.9 17 -8.3 21 21 N 15 24 30.29 1026 10 16 0.00 0.00
2:53 pm 14:53 Sunny 59 15 14 -10 17 17 NNW 15 24 30.24 1024 10 16 0.00 0.00
3:53 pm 15:53 Sunny 60 15.6 13 -10.6 16 16 VRB 7 11 30.21 1023 10 16 0.00 0.00
4:53 pm 16:53 Sunny 61 16.1 11 -11.7 14 14 N 14 22 30.19 1023 10 16 0.00 0.00
5:53 pm 17:53 Sunny 61 16.1 9 -12.8 13 13 NNE 9 15 30.19 1022 10 16 0.00 0.00
6:53 pm 18:53 Sunny 58 14.4 9 -12.8 14 14 NNW 6 9 30.18 1022 10 16 0.00 0.00
7:53 pm 19:53 Clear 51 10.6 12 -11.1 21 21 W 7 11 30.19 1023 10 16 0.00 0.00
8:53 pm 20:53 Clear 47 8.3 16 -8.9 29 29 WNW 8 13 30.19 1022 10 16 0.00 0.00
9:53 pm 21:53 Clear 43 6.1 16 -8.9 34 34 W 8 13 30.18 1022 10 16 0.00 0.00
10:53 pm 22:53 Clear 40 4.4 16 -8.9 38 38 NNW 3 6 30.16 1022 10 16 0.00 0.00
11:53 pm 23:53 Clear 39 3.9 14 -10 36 36 NNE 3 6 30.15 1021 10 16 0.00 0.00

Powered by AerisWeather